Regional Weather Roundup
Issued by NWS Newport/Morehead, NC

Home | Current Version | Previous Version | Text Only | Print | Product List | Glossary On
Versions: 1 2 3 4 5 6 7 8 9 10 11 12 13 14 15 16 17 18 19 20 21 22 23 24 25 26 27 28 29 30 31 32 33 34 35 36 37 38 39 40 41 42 43 44 45 46 47 48 49 50
000
ASUS42 KMHX 021322
RWRMHX
WEATHER ROUNDUP FOR EASTERN NORTH CAROLINA
NATIONAL WEATHER SERVICE NEWPORT/MOREHEAD CITY NC
900 AM EDT TUE SEP 02 2014

NOTE: "FAIR" INDICATES FEW OR NO CLOUDS BELOW 12,000 FEET
WITH NO SIGNIFICANT WEATHER AND/OR OBSTRUCTIONS TO VISIBILITY

NCZ015>017-031-032-045>047-102-103-021400-
NORTH COAST

CITY           SKY/WX    TMP DP  RH WIND       PRES   REMARKS
EDENTON        SUNNY     81  75  82 W7        30.05F
ELIZABETH CITY SUNNY     81  75  82 W10       30.05S
KITTY HAWK     SUNNY     82  75  78 W8        30.05S
MANTEO         SUNNY     83  74  74 W8        30.06S

$$

NCZ045>047-081-094-103-104-021400-
CENTRAL COAST

CITY           SKY/WX    TMP DP  RH WIND       PRES   REMARKS
FRISCO         SUNNY     81  77  88 W10       30.08S
SWANQUARTER      N/A     82 N/A N/A W9        30.03S

$$

NCZ095-097-098-100-101-021400-
SOUTHERN COAST

CITY           SKY/WX    TMP DP  RH WIND       PRES   REMARKS
BEAUFORT       MOSUNNY   83  77  82 W10       30.09S
CEDAR ISLAND     N/A     84 N/A N/A SW8       30.12S
JACKSONVILLE   MOSUNNY   81  76  84 W7        30.09S
NEWPORT        NOT AVBL
PINEY ISLAND   SUNNY     84  79  85 W12       30.08S
WILMINGTON     SUNNY     82  77  84 W7        30.10S


$$

NCZ011>013-027>030-043-044-078>080-089-090>093-098-021400-
COASTAL PLAIN

CITY           SKY/WX    TMP DP  RH WIND       PRES   REMARKS
AHOSKIE        SUNNY     80  73  79 CALM      30.05S
CLINTON        MOSUNNY   80  77  88 SW5       30.09S
ELIZABETHTOWN  SUNNY     80  76  86 W7        30.09F
GOLDSBORO      SUNNY     81  80  96 SW6       30.06S
GREENVILLE     LGT RAIN  81  77  89 W6        30.08S
HAVELOCK       MOSUNNY   82  76  81 W9        30.10S
KENANSVILLE    SUNNY     79  75  87 SW6       30.10S
KINSTON        SUNNY     82  75  78 SW7       30.09S
NEW BERN       MOSUNNY   82  76  81 SW6       30.09F
RICHLANDS      SUNNY     82  73  74 W5        30.09S
ROANOKE RAPIDS NOT AVBL
ROCKY MOUNT    SUNNY     81  74  79 SW6       30.07S
WASHINGTON     SUNNY     82  75  81 SW9       30.07S
WHITEVILLE     PTSUNNY   79  76  90 CALM      30.09S

$$

AMZ130-135-150-152-154-156-158-170-250-252-270-ANZ085-086-088-633-658-670-021400-
MARINE OBSERVATIONS

STATION/POSITION TIME  TEMP    WIND        PRES    WAVE   SWELL
                       AIR SEA DIR/SP/G            HT/PER HT/PER
                 (UTC) (F)     (DEG/KT/KT) (MB)    (FT/S) (FT/S)
CHESAPEAKE LIGHT 1300   79     240/ 13/ 15 1017.2
BUOY 44014       1300   78 76  230/ 12/ 12 1016.8    3/ 9   2/ 9
DUCK             1300   80 75  240/ 12/ 15 1016.8
2E DUCK          1300                        N/A     2/10   2/12
OREGON INLET     1300   81 84  250/ 10/ 12 1017.9
BUOY 44095       1300      79                N/A     3/13   2/13
20E OREGON INLET NOT AVBL
HATTERAS CG      1300   82 83  250/ 11/ 13 1019.1
DIAMOND BUOY     1300   81     250/ 12/ 14 1018.7    3/ 4   2/ 9
CAPE LOOKOUT     1300   83     250/ 10/ 12 1018.9
BEAUFORT LAB     1300   82 83  260/  5/  9 1018.5
30 SE NEW RIVER  1300   82 82  270/  8/ 10 1019.4    3/ 9   2/ 9
5 SE WRIGHTSVILL 1300   77 82  260/  8/ 10   N/A
BUOY 41002       1223   81 83  210/ 10/ 12 1020.9    3/ 9   3/ 9
BUOY 41004       1300   83 83  250/  4/  4 1018.9    2/ 9   2/ 9

$$


USA.gov is the U.S. government's official web portal to all federal, state and local government web resources and services.